Regional Weather Roundup
Issued by NWS

Home | Current Version | Previous Version | Graphics & Text | Print | Product List | Glossary On
Versions: 1 2 3 4 5 6 7 8 9 10 11 12 13 14 15 16 17 18 19 20 21 22 23 24 25 26 27 28 29 30 31 32 33 34 35 36 37 38 39 40 41 42 43 44 45 46 47 48 49 50
000
ASUS45 KBOI 260910
RWRID
WEATHER ROUNDUP FOR IDAHO
NATIONAL WEATHER SERVICE BOISE ID
200 AM MST THU FEB 26 2015

NOTE: "FAIR" INDICATES FEW OR NO CLOUDS BELOW 12000 FEET
WITH NO SIGNIFICANT WEATHER AND/OR OBSTRUCTIONS TO VISIBILITY

IDZ012-014-261000-
SOUTHWEST IDAHO


CITY           SKY/WX    TMP DP  RH WIND       PRES   REMARKS
BOISE          CLOUDY    41  30  65 NW8       30.07S
CALDWELL       CLOUDY    43  27  52 W18       30.10S
MOUNTAIN HOME  CLOUDY    39  29  65 W6        30.06F
$$

IDZ016-017-261000-
SOUTHCENTRAL IDAHO


CITY           SKY/WX    TMP DP  RH WIND       PRES   REMARKS
BURLEY         CLOUDY    36  21  54 W10       30.00F WCI  28
JEROME         CLOUDY    33  20  58 W3        30.03F
TWIN FALLS     MOCLDY    36  20  52 S14       30.03F WCI  27
$$

IDZ019>023-261000-
SOUTHEAST IDAHO


CITY           SKY/WX    TMP DP  RH WIND       PRES   REMARKS
IDAHO FALLS    MOCLDY    26  16  65 N9        30.05F WCI  17
POCATELLO      PTCLDY    28  18  66 E5        30.04F WCI  23
REXBURG        MOCLDY    20  13  74 NE7       30.06F WCI  11
$$

IDZ006-010-011-018-031-032-261000-
CENTRAL IDAHO MOUNTAINS


CITY           SKY/WX    TMP DP  RH WIND       PRES   REMARKS
MCCALL         LGT SNOW  30  26  85 CALM      30.03F FOG
HAILEY         CLOUDY    32  21  64 NW5       30.03F WCI  27
STANLEY          N/A     23  13  65 CALM      30.02F
SALMON         CLOUDY    27  16  63 CALM      30.07F
CHALLIS        CLOUDY    27  18  69 CALM      30.03F
$$

IDZ002-004-006-007-026-261000-
NORTHERN IDAHO


CITY           SKY/WX    TMP DP  RH WIND       PRES   REMARKS
LEWISTON       LGT RAIN  41  38  89 E6        30.16S
LOWELL           N/A     34  29  82 CALM      30.18F
COEUR D`ALENE  PTCLDY    28  23  80 CALM      30.12F
MULLAN PASS    MOCLDY    23  20  88 NW5       30.03F WCI  17
$$


USA.gov is the U.S. government's official web portal to all federal, state and local government web resources and services.